TimeGMT,TemperatureF,Dew PointF,Humidity,Sea Level PressureIn,VisibilityMPH,Wind Direction,Wind SpeedMPH,Gust SpeedMPH,PrecipitationIn,Events,Conditions,WindDirDegrees,DateUTC
12:00 AM,46,41,77,29.56,19,SSW,8.9,,,,Scattered Clouds,200,2012-12-24 00:00:00
12:00 AM,46.4,41.0,81,29.53,6.2,SSW,9.2,-,N/A,,Mostly Cloudy,200,2012-12-24 00:00:00
12:30 AM,46.4,41.0,81,29.53,6.2,SSW,9.2,-,N/A,,Mostly Cloudy,200,2012-12-24 00:30:00
1:00 AM,46.4,41.0,81,29.53,6.2,South,6.9,-,N/A,,Mostly Cloudy,180,2012-12-24 01:00:00
1:30 AM,46.4,41.0,81,29.50,6.2,SSW,5.8,-,N/A,,Mostly Cloudy,200,2012-12-24 01:30:00
2:00 AM,46.4,41.0,81,29.50,6.2,SSE,6.9,-,N/A,,Mostly Cloudy,150,2012-12-24 02:00:00
2:30 AM,46.4,41.0,81,29.47,6.2,SSE,5.8,-,N/A,,Mostly Cloudy,160,2012-12-24 02:30:00
3:00 AM,46.4,41.0,81,29.47,6.2,SSE,6.9,-,N/A,,Mostly Cloudy,150,2012-12-24 03:00:00
3:30 AM,46.4,41.0,81,29.44,6.2,SE,9.2,-,N/A,,Mostly Cloudy,140,2012-12-24 03:30:00
4:00 AM,46.4,42.8,87,29.44,6.2,SE,11.5,-,N/A,,Mostly Cloudy,140,2012-12-24 04:00:00
4:30 AM,46.4,42.8,87,29.42,6.2,SE,9.2,-,N/A,,Mostly Cloudy,140,2012-12-24 04:30:00
5:00 AM,48.2,42.8,82,29.42,6.2,SSE,6.9,-,N/A,,Mostly Cloudy,150,2012-12-24 05:00:00
5:30 AM,48.2,42.8,82,29.42,6.2,ESE,6.9,-,N/A,,Mostly Cloudy,120,2012-12-24 05:30:00
6:00 AM,48,42,74,29.40,9,SE,8.9,,,Rain,Light Rain,140,2012-12-24 06:00:00
6:00 AM,48.2,42.8,82,29.39,6.2,SE,9.2,-,N/A,Rain,Light Rain,130,2012-12-24 06:00:00
6:30 AM,46.4,42.8,87,29.39,6.2,South,10.4,-,N/A,,Mostly Cloudy,180,2012-12-24 06:30:00
7:00 AM,46.4,41.0,81,29.36,6.2,SSE,5.8,-,N/A,,Mostly Cloudy,150,2012-12-24 07:00:00
7:30 AM,46.4,41.0,81,29.36,6.2,SSE,8.1,-,N/A,,Mostly Cloudy,160,2012-12-24 07:30:00
8:00 AM,46.4,42.8,87,29.36,6.2,SSE,8.1,-,N/A,,Mostly Cloudy,160,2012-12-24 08:00:00
8:30 AM,46.4,42.8,87,29.33,6.2,SSE,6.9,-,N/A,,Mostly Cloudy,150,2012-12-24 08:30:00
9:00 AM,46.4,41.0,81,29.33,6.2,South,8.1,-,N/A,,Mostly Cloudy,180,2012-12-24 09:00:00
9:30 AM,46.4,42.8,87,29.33,6.2,South,9.2,-,N/A,,Mostly Cloudy,170,2012-12-24 09:30:00
10:00 AM,46.4,42.8,87,29.30,6.2,South,8.1,-,N/A,,Mostly Cloudy,180,2012-12-24 10:00:00
10:30 AM,46.4,42.8,87,29.30,6.2,South,8.1,-,N/A,,Mostly Cloudy,170,2012-12-24 10:30:00
11:00 AM,48.2,42.8,82,29.30,6.2,South,6.9,-,N/A,,Mostly Cloudy,170,2012-12-24 11:00:00
11:30 AM,48.2,42.8,82,29.30,6.2,SSE,6.9,-,N/A,,Mostly Cloudy,160,2012-12-24 11:30:00
12:00 PM,48,43,76,29.29,25,SSE,6.7,,,Rain,Light Rain,160,2012-12-24 12:00:00
12:00 PM,48.2,42.8,82,29.27,6.2,SSE,5.8,-,N/A,,Mostly Cloudy,160,2012-12-24 12:00:00
12:30 PM,48.2,42.8,82,29.27,6.2,SSW,9.2,-,N/A,,Mostly Cloudy,210,2012-12-24 12:30:00
1:00 PM,48.2,42.8,82,29.24,6.2,SW,10.4,-,N/A,,Mostly Cloudy,220,2012-12-24 13:00:00
1:30 PM,48.2,42.8,82,29.24,6.2,SW,10.4,-,N/A,,Mostly Cloudy,230,2012-12-24 13:30:00
2:00 PM,48.2,42.8,82,29.24,6.2,SW,11.5,-,N/A,,Mostly Cloudy,230,2012-12-24 14:00:00
2:30 PM,48.2,42.8,82,29.24,6.2,SW,11.5,-,N/A,,Scattered Clouds,220,2012-12-24 14:30:00
3:00 PM,46.4,42.8,87,29.21,6.2,SW,13.8,-,N/A,,Scattered Clouds,220,2012-12-24 15:00:00
3:30 PM,46.4,42.8,87,29.21,6.2,SW,13.8,-,N/A,,Partly Cloudy,220,2012-12-24 15:30:00
4:00 PM,46.4,41.0,81,29.24,6.2,SW,8.1,-,N/A,,Partly Cloudy,230,2012-12-24 16:00:00
4:30 PM,44.6,41.0,87,29.24,6.2,SW,8.1,-,N/A,,Partly Cloudy,220,2012-12-24 16:30:00
5:00 PM,42.8,41.0,93,29.24,6.2,SW,8.1,-,N/A,,Mostly Cloudy,220,2012-12-24 17:00:00
5:30 PM,42.8,41.0,93,29.24,6.2,SW,9.2,-,N/A,,Mostly Cloudy,220,2012-12-24 17:30:00
6:00 PM,43,40,86,29.24,25,SW,8.9,,,,Scattered Clouds,220,2012-12-24 18:00:00
6:00 PM,42.8,41.0,93,29.24,6.2,SW,9.2,-,N/A,,Mostly Cloudy,220,2012-12-24 18:00:00
6:30 PM,42.8,41.0,93,29.24,6.2,SSW,9.2,-,N/A,,Mostly Cloudy,210,2012-12-24 18:30:00
7:00 PM,44.6,41.0,87,29.24,6.2,SSW,9.2,-,N/A,,Mostly Cloudy,200,2012-12-24 19:00:00
7:30 PM,44.6,41.0,87,29.24,6.2,South,6.9,-,N/A,,Mostly Cloudy,190,2012-12-24 19:30:00
8:00 PM,44.6,39.2,81,29.21,6.2,SSW,9.2,-,N/A,,Mostly Cloudy,200,2012-12-24 20:00:00
8:30 PM,42.8,39.2,87,29.21,6.2,South,8.1,-,N/A,,Scattered Clouds,190,2012-12-24 20:30:00
9:00 PM,42.8,39.2,87,29.21,6.2,South,5.8,-,N/A,,Mostly Cloudy,190,2012-12-24 21:00:00
9:30 PM,42.8,39.2,87,29.21,6.2,South,5.8,-,N/A,,Mostly Cloudy,190,2012-12-24 21:30:00
10:00 PM,42.8,39.2,87,29.21,6.2,South,5.8,-,N/A,,Mostly Cloudy,180,2012-12-24 22:00:00
10:30 PM,42.8,39.2,87,29.21,6.2,SSE,5.8,-,N/A,,Mostly Cloudy,160,2012-12-24 22:30:00
11:00 PM,44.6,39.2,81,29.18,6.2,South,10.4,-,N/A,,Mostly Cloudy,180,2012-12-24 23:00:00
11:30 PM,44.6,39.2,81,29.18,6.2,South,8.1,-,N/A,,Mostly Cloudy,170,2012-12-24 23:30:00